ASTEX 1

Last updated on Thu Oct 30 2025 00:02:14 GMT+0000 (Coordinated Universal Time)

1 05560U 71089A 25302.48777302 .00000937 00000+0 23918-3 0 9995 2 05560 92.7114 109.3107 0016262 160.1552 200.0289 14.50557488843283
UTC large
Height (km)
Speed (km/s)
/
Latitude / Longitude
Inclination (degrees)
Orbital Period (minutes)
Azimuth
Elevation
Range (km)
Doppler Factor

Next 0 passes for location: London (51.5072 / 0.1276)

Sorry there are no passes over London.